COSMOS 1634

导读 | 豆包AI

COSMOS 1634是苏联(CIS)于1985年3月14日发射的一颗军用侦察卫星,隶属于著名的“宇宙”卫星系列。该系列卫星采用统一编号命名,借此隐蔽卫星真实任务属性。COSMOS系列是冷战时期苏联航天活动的重要组成,涵盖军事侦察、电子情报收集等多种用途,在美苏太空对抗中发挥了关键作用,这类卫星多数已完成服役任务,部分残骸会再入大气层销毁。

Basic Information
目录编号:
15597
目录名称:
COSMOS 1634
国际标识:
1985-022A
轨道中心:
EARTH
卫星名称:
COSMOS 1634
卫星全名:
--
卫星状态:
在轨 (已飞行14975 天)
发射日期:
1985-03-14 UTC
国别 :
俄罗斯(独联体) (CIS)
星等 :
--
Orbit Information
数据来源 国际轨道数据 AOE轨道数据
星历时间 2026-03-13T10:57:56+0800
1天前
查看轨道信息
2026-03-12T02:00:00+0800
2天前
查看轨道信息
半长轴 7358.671km 7358.67km
偏心率 0.0034479 0.0034346
轨道倾角 82.937° 82.939°
近地点辐角 306.084° 310.465°
升交点赤经 286.939° 287.959°
平近点角 170.663° 209.385°
近地点 955.162km 955.258km
远地点 1005.906km 1005.808km
周期 104.703分钟 104.703分钟
每日圈数 13.753198 13.753202
Detailed Information
使用方式:
暂无
2D Orbit Map
3D Orbit Map
Orbit Altitude Analysis Chart
Orbit Inclination Analysis Chart
Orbit Comprehensive Analysis Chart
View Comprehensive Chart